This is the latest recevied weather packets stored in our database for station/object N3WMC. If no packets are shown the sender has not sent any weather packets the latest 10 day(s).
| Time | Temp. | Humidity | Pressure | Rain* | Wind** | Luminosity | Snow |
|---|---|---|---|---|---|---|---|
| 1777504353 | 14.44° C | 91% | 1008 hPa | 0 mm | - | 16 W/m² | - |
| 1777504047 | 14.44° C | 90% | 1008 hPa | 0 mm | - | 37 W/m² | - |
| 1777503744 | 14.44° C | 90% | 1008 hPa | 0 mm | - | 42 W/m² | - |
| 1777503441 | 14.44° C | 89% | 1007.9 hPa | 0 mm | - | 14 W/m² | - |
| 1777503137 | 14.44° C | 88% | 1007.7 hPa | 0 mm | - | 14 W/m² | - |
| 1777502835 | 14.44° C | 89% | 1007.7 hPa | 0 mm | - | 27 W/m² | - |
| 1777502532 | 14.44° C | 89% | 1007.8 hPa | 0 mm | - | 36 W/m² | - |
| 1777502229 | 14.44° C | 89% | 1007.7 hPa | 0 mm | - | 24 W/m² | - |
| 1777501926 | 15° C | 89% | 1007.6 hPa | 0 mm | - | 34 W/m² | - |
| 1777501623 | 15° C | 90% | 1007.7 hPa | 0 mm | - | 24 W/m² | - |
| 1777501319 | 15° C | 90% | 1007.5 hPa | 0 mm | - | 54 W/m² | - |
| 1777501018 | 15° C | 91% | 1007.3 hPa | 0 mm | - | 64 W/m² | - |
| 1777500715 | 15° C | 91% | 1007.3 hPa | 0 mm | - | 34 W/m² | - |
| 1777500411 | 15° C | 91% | 1007.4 hPa | 0 mm | - | 33 W/m² | - |
| 1777500108 | 15° C | 91% | 1007.2 hPa | 0 mm | - | 46 W/m² | - |
| 1777499805 | 15° C | 91% | 1007 hPa | 0 mm | - | 48 W/m² | - |
| 1777499501 | 15° C | 91% | 1007 hPa | 0 mm | - | 38 W/m² | - |
| 1777499199 | 15° C | 91% | 1007 hPa | 0 mm | - | 45 W/m² | - |
| 1777498895 | 15° C | 91% | 1007.1 hPa | 0 mm | - | 84 W/m² | - |
| 1777498592 | 15.56° C | 91% | 1007 hPa | 0 mm | - | 102 W/m² | - |
| 1777498288 | 15° C | 91% | 1006.9 hPa | 0 mm | - | 130 W/m² | - |
| 1777497987 | 15° C | 90% | 1006.6 hPa | 0 mm | - | 100 W/m² | - |
| 1777497682 | 15° C | 91% | 1006.9 hPa | 0 mm | - | 97 W/m² | - |
| 1777497379 | 15° C | 91% | 1006.8 hPa | 0 mm | - | 103 W/m² | - |
| 1777497075 | 15° C | 91% | 1007.1 hPa | 0 mm | - | 88 W/m² | - |
* Rain latest hour (hover to see other rain measurements)
** Current wind speed in m/s (hover to see current wind gust speed)